Gelidra Progression Standings

Encounter Details
Name Gelidra
Dungeon Frozen Tempest
Tier Storm Legion (SL1)
Raid Size 20
Release Date 2012-11-13
EU Time Diff 0 Days 8 Hours 0 Minutes
WW Clears 83
NA Clears 52
EU Clears 31
First Kill Exploit
Recent Kill Gaiscioch
Gelidra Standings
Rank Guild Server Date Completed Time Difference Server Achieved WR RR SR Kill Video(s) Screenshot
World Standings
1 Exploit Typhiria 2012-11-18 14:39:00 --- Typhiria
2 Addiction Greybriar 2012-11-20 18:56:00 2 Days 12 Hours 17 Minutes Greybriar
3 Trinity Laethys 2012-11-25 20:57:00 5 Days 2 Hours 1 Minutes Laethys
4 Babytown Faeblight 2012-11-25 22:24:00 0 Days 1 Hours 27 Minutes Faeblight 4
5 Aegis Hailol 2012-11-29 19:36:00 3 Days 21 Hours 12 Minutes Hailol 5 4
6 Lucidium Greybriar 2012-12-01 20:41:00 2 Days 1 Hours 5 Minutes Greybriar 6 5
7 UNDECIDED Deepwood 2012-12-01 21:00:00 0 Days 0 Hours 19 Minutes Deepwood 7 6
8 Virus Deepwood 2012-12-03 08:04:00 1 Days 11 Hours 4 Minutes Deepwood 8 7
9 Drow Wolfsbane 2012-12-04 17:48:00 1 Days 9 Hours 44 Minutes Wolfsbane 9 8
10 Coriolis Hailol 2012-12-05 01:48:00 0 Days 8 Hours 0 Minutes Hailol 10 9
11 Arm Dearg Zaviel 2012-12-05 21:16:00 0 Days 11 Hours 28 Minutes Zaviel 11
12 Mutiny Greybriar 2012-12-05 19:00:00 0 Days 5 Hours 44 Minutes Greybriar 12 10
13 Crayons Greybriar 2012-12-05 20:15:00 0 Days 1 Hours 15 Minutes Greybriar 13 11 4
14 The Chosen Greybriar 2012-12-05 21:04:00 0 Days 0 Hours 49 Minutes Greybriar 14 12 5
15 ExTenebris Brutwacht 2012-12-06 14:00:00 0 Days 8 Hours 56 Minutes Brutwacht 15
16 Beep Beep Ima Jeep Deepwood 2012-12-06 20:26:00 0 Days 14 Hours 26 Minutes Deepwood 16 13
17 Snakes On A Planarite Faeblight 2012-12-07 20:54:00 1 Days 0 Hours 28 Minutes Faeblight 17 14
18 Negative Ghostrider Wolfsbane 2012-12-10 19:34:00 2 Days 22 Hours 40 Minutes Wolfsbane 18 15
19 Order of Shadow Greybriar 2012-12-11 18:57:00 0 Days 23 Hours 23 Minutes Greybriar 19 16 6
20 Transience Deepwood 2012-12-12 18:12:00 0 Days 23 Hours 15 Minutes Deepwood 20 17 4
21 Dawn of Terror Faeblight 2012-12-12 19:39:00 0 Days 1 Hours 27 Minutes Faeblight 21 18
22 Everlasting Vendetta Greybriar 2012-12-12 20:04:00 0 Days 0 Hours 25 Minutes Greybriar 22 19 7
23 Harshmallows Gelidra 2012-12-13 11:33:00 0 Days 7 Hours 29 Minutes Gelidra 23 4
24 Stack on 8 Gelidra 2012-12-13 13:25:00 0 Days 1 Hours 52 Minutes Gelidra 24 5
25 White Wing Typhiria 2012-12-16 12:08:00 2 Days 22 Hours 43 Minutes Typhiria 25 6
26 Rage Brutwacht 2012-12-16 13:50:00 0 Days 1 Hours 42 Minutes Brutwacht 26 7
27 Frontliners Wolfsbane 2012-12-17 19:30:00 1 Days 13 Hours 40 Minutes Wolfsbane 27 20
28 Imperium Zaviel 2012-12-18 13:16:00 0 Days 9 Hours 46 Minutes Zaviel 28 8
29 White Fang Greybriar 2012-12-19 00:00:00 0 Days 18 Hours 44 Minutes Greybriar 29 21 8
30 10 Inches Unbuffed Greybriar 2012-12-20 20:38:00 1 Days 20 Hours 38 Minutes Greybriar 30 22 9
31 Jynxed Greybriar 2012-12-27 19:59:00 6 Days 23 Hours 21 Minutes Greybriar 31 23 10
32 Thantos Gallone Xentos Deepwood 2012-12-28 19:01:00 0 Days 23 Hours 2 Minutes Deepwood 32 24 5
33 Nicely Played Faeblight 2012-12-29 21:43:00 1 Days 2 Hours 42 Minutes Faeblight 33 25 4
34 Cursed Brisesol 2012-12-31 16:00:00 1 Days 10 Hours 17 Minutes Brisesol 34 9
35 Divine Fury Deepwood 2013-01-02 18:45:00 2 Days 10 Hours 45 Minutes Deepwood 35 26 6
36 Too Many Buttons Greybriar 2013-01-05 18:56:00 3 Days 0 Hours 11 Minutes Greybriar 36 27 11
37 Bloodlust Brisesol 2013-01-06 14:00:00 0 Days 11 Hours 4 Minutes Brisesol 37 10
38 Unity. Greybriar 2013-01-06 17:15:00 0 Days 11 Hours 15 Minutes Greybriar 38 28 12
39 Sternenwanderer Brutwacht 2013-01-08 11:30:00 1 Days 10 Hours 15 Minutes Brutwacht 39 11
40 Allegiance Greybriar 2013-01-09 00:00:00 0 Days 20 Hours 30 Minutes Greybriar 40 29 13
41 Moloch Zaviel 2013-01-14 12:48:00 5 Days 4 Hours 48 Minutes Zaviel 41 12
42 Nephilim Greybriar 2013-01-14 19:00:00 0 Days 14 Hours 12 Minutes Greybriar 42 30 14
43 Nefarious Laethys 2013-01-17 02:40:00 2 Days 7 Hours 40 Minutes Laethys 43 31
44 Nordvegr Faeblight 2013-02-02 23:16:00 16 Days 20 Hours 36 Minutes Faeblight 44 32 5
45 TKagi Ro Greybriar 2013-02-04 21:00:00 1 Days 21 Hours 44 Minutes Greybriar 45 33 15
46 Heroes of Chronic Brutwacht 2013-02-06 12:49:00 1 Days 7 Hours 49 Minutes Brutwacht 46 13 4
47 ~Halcyon~ Deepwood 2013-02-08 20:30:00 2 Days 15 Hours 41 Minutes Deepwood 47 34 7
48 DreamTeam Zaviel 2013-02-24 00:32:00 14 Days 20 Hours 2 Minutes Zaviel 48 14 4
49 Lowland Elites Zaviel 2013-02-24 18:59:00 0 Days 18 Hours 27 Minutes Zaviel 49 15 5
50 Dirty Deeds Faeblight 2013-02-24 20:10:00 0 Days 9 Hours 11 Minutes Faeblight 50 35 6
51 D*Dragons Gelidra 2013-02-28 10:33:00 3 Days 6 Hours 23 Minutes Gelidra 51 16
52 The Art of War Deepwood 2013-03-02 19:21:00 2 Days 16 Hours 48 Minutes Deepwood 52 36 8
53 Bottom Line Greybriar 2013-03-04 21:54:00 2 Days 2 Hours 33 Minutes Greybriar 53 37 16
54 Warcry Faeblight 2013-03-18 18:59:00 13 Days 20 Hours 5 Minutes Faeblight 54 38 7
55 Shai Hulud Brisesol 2013-03-27 13:09:00 8 Days 10 Hours 10 Minutes Brisesol 55 17
56 Dol Amroth Deepwood 2013-04-02 20:00:00 6 Days 14 Hours 51 Minutes Deepwood 56 39 9
57 Pyre Greybriar 2013-04-03 18:20:00 0 Days 22 Hours 20 Minutes Greybriar 57 40 17
58 Ascendance Greybriar 2013-04-26 22:46:00 23 Days 4 Hours 26 Minutes Greybriar 58 41 18
59 L'Ordre Draconique Brisesol 2013-05-02 14:00:00 5 Days 7 Hours 14 Minutes Brisesol 59 18 4
60 Nirvana Wolfsbane 2013-05-04 00:00:00 1 Days 18 Hours 0 Minutes Wolfsbane 60 42 4
61 Les 3 Royaumes Brisesol 2013-06-27 14:00:00 54 Days 6 Hours 0 Minutes Brisesol 61 19 5
62 Les Trois Royaumes Brisesol 2013-06-27 14:18:00 0 Days 0 Hours 18 Minutes Brisesol 62 20 6
63 Requiem-Brutmutter Brutwacht 2013-07-08 06:16:00 10 Days 15 Hours 58 Minutes Brutwacht 63 21 5
64 Requiem Zaviel 2013-07-16 13:24:00 8 Days 7 Hours 8 Minutes Zaviel 64 22 6
65 Rift Shifters Zaviel 2013-07-17 16:00:00 1 Days 2 Hours 36 Minutes Zaviel 65 23 7
66 distorted Insanity Crew Brutwacht 2013-07-22 12:12:00 4 Days 20 Hours 12 Minutes Brutwacht 66 24 6
67 Fierce Hailol 2013-08-11 19:09:00 20 Days 14 Hours 57 Minutes Hailol 67 43
68 Apotheosys Typhiria 2013-09-04 11:00:00 23 Days 7 Hours 51 Minutes Typhiria 68 25
69 Holy Wisdom Laethys 2013-09-20 08:18:00 16 Days 5 Hours 18 Minutes Laethys 69 44
70 Nornes Brisesol 2013-10-06 14:00:00 15 Days 21 Hours 42 Minutes Brisesol 70 26 7
71 Trash on Farm Gelidra 2013-12-27 16:00:00 82 Days 3 Hours 0 Minutes Gelidra 71 27 4
72 PHX Brisesol 2013-12-31 16:00:00 4 Days 0 Hours 0 Minutes Brisesol 72 28 8
73 Valhalla Typhiria 2013-12-31 16:00:00 --- Typhiria 73 29 4
74 Rise of the Forgotten Laethys 2014-01-01 00:00:00 0 Days 16 Hours 0 Minutes Laethys 74 45 4
75 Sigmathu Brisesol 2014-01-12 13:16:00 11 Days 5 Hours 16 Minutes Brisesol 75 30 9
76 Fat Kids with Cake Deepwood 2014-01-12 20:00:00 0 Days 14 Hours 44 Minutes Deepwood 76 46 10
77 The Dawntreaders Greybriar 2014-01-14 21:00:00 2 Days 1 Hours 0 Minutes Greybriar 77 47 19
78 Critical Hit Hailol 2014-02-09 18:51:00 25 Days 21 Hours 51 Minutes Hailol 78 48 4
79 Silhouette Greybriar 2014-02-27 22:00:00 18 Days 3 Hours 9 Minutes Greybriar 79 49 20
80 Night Avengers Zaviel 2014-07-15 02:13:00 136 Days 19 Hours 13 Minutes Zaviel 80 31 8
81 -Hello Kitty- Deepwood 2015-11-15 17:23:00 489 Days 0 Hours 10 Minutes Deepwood 81 50 11
82 Blood and Glory Faeblight 2016-06-04 14:06:00 201 Days 19 Hours 43 Minutes Faeblight 82 51 8
83 Gaiscioch Faeblight 2017-01-16 18:18:00 226 Days 5 Hours 12 Minutes Faeblight 83 52 9
WF World First RF Region First SF Server First WR World Rank RR Region Rank SR Server Rank